Weather in Turmyshi

Russia / Chuvash Republic     55°30′53″N   47°39′52″E
temp.,
°C
wind,
m/s
gust,
m/s
humid.,
%
clouds,
%
prec.,
mm/h
press.,
hPa
HPBL,
m
31 july, sat
sat3100:00+18sw3794100 1.1 1004176
03:00+17ssw229699 1.3 100431
06:00+19ssw359350 0.6 1003264
09:00+22wsw678199 0.9 1003783
12:00+25w795767 0.1 10031626
15:00+25wsw6106286 0.1 10041016
18:00+24w5115249 0.0 1005434
21:00+19wsw496919 0.0 1007150
1 august, sun
sun100:00+20sw4116025 0.0 1008304
03:00+16wsw387645 0.0 1009121
06:00+18wsw37735 0.0 1011207
09:00+24w465146 0.0 1012633
12:00+26w684195 0.0 10121827
15:00+27w573875 0.0 10122137
18:00+25w245797 0.0 101282
21:00+20sw2267100 0.0 101311
2 august, mon
mon200:00+19sw33677 0.0 101323
03:00+17ssw237015 0.0 101423
06:00+19ssw367163 0.0 1014153
09:00+26ssw465067 0.0 1014488
12:00+30sw56395 0.0 10131176
15:00+31sw563515 0.0 10122359
18:00+28s345320 0.0 101061
21:00+23s47561 0.0 101192
3 august, tue
tue300:00+21sse345511 0.0 101047
03:00+20sse376411 0.0 1009118
06:00+22s5155951 0.0 1008346
09:00+28ssw611455 0.0 1007581
12:00+29ssw594671 0.0 1008551
15:00+31wsw684017 0.0 10081483
18:00+26wsw5952100 0.0 1008334
21:00+22wsw226998 0.0 100940
4 august, wed
wed400:00+21sse227399 0.0 100917
03:00+19sw2284100 0.0 101034
06:00+19wnw4980100 0.0 1010299
09:00+19w4681100 0.1 1012509
12:00+22wnw4465100 0.0 1012922
15:00+24nnw465422 0.0 10121366
18:00+24nw36542 0.0 1012231
21:00+18n49632 0.0 1013159